Weather History for KOZW - January, 2013

Change the Weather History Date:

Wednesday, January 9, 2013

  Actual Average Record
Temperature  
Mean Temperature 36 °F -  
Max Temperature 44 °F 30 °F 50 °F (2008)
Min Temperature 29 °F 17 °F 0 °F (2001)
Degree Days  
Heating Degree Days 28    
Moisture  
Dew Point 26 °F    
Average Humidity 64    
Maximum Humidity 79    
Minimum Humidity 38    
Precipitation  
Precipitation 0.00 in - - ()
Sea Level Pressure  
Sea Level Pressure 30.14 in    
Wind  
Wind Speed 12 mph (WSW)    
Max Wind Speed 25 mph    
Max Gust Speed 36 mph    
Visibility 9 miles    
Events Rain    
Averages and records for this station are not official NWS values.
T = Trace of Precipitation, MM = Missing Value Source: NWS Daily Summary

Daily Weather History Graph

Daily Weather History Graph

Search for Another Location

Airport or City:

Trip Planner

Search our weather history database for the weather conditions in past years. The results will help you decide how hot, cold, wet, or windy it might be!

Date:

Astronomy

Jan. 09, 2013 Rise Set
Actual Time 8:05 AM EST 5:21 PM EST
Civil Twilight 7:33 AM EST 5:52 PM EST
Nautical Twilight 6:58 AM EST 6:28 PM EST
Astronomical Twilight 6:24 AM EST 7:02 PM EST
Moon 5:43 AM EST (1/9) 3:21 PM EST (1/9)
Length of Visible Light 10h 19m
Length of Day
9h 15m
Waning Crescent, 6% of the Moon is Illuminated
Jan 9
Waning Crescent
Jan 11
New
Jan 18
First Quarter
Jan 26
Full
Feb 3
Last Quarter

Hourly Weather History & Observations

Time (EST) Temp. Windchill Dew Point Humidity Pressure Visibility Wind Dir Wind Speed Gust Speed Precip Events Conditions
12:55 AM 32.0 °F 24.2 °F 24.8 °F 75% 30.10 in 7.0 mi South 9.2 mph - N/A   Clear
1:14 AM 31.5 °F 24.2 °F 24.1 °F 74% 30.08 in 7.0 mi SSE 8.1 mph - N/A   Clear
1:35 AM 30.2 °F 22.6 °F 23.9 °F 77% 30.08 in 5.0 mi South 8.1 mph - N/A   Haze
1:55 AM 31.3 °F 23.3 °F 24.6 °F 76% 30.07 in 7.0 mi South 9.2 mph - N/A   Clear
2:14 AM 29.7 °F 23.7 °F 23.9 °F 79% 30.07 in 5.0 mi SSE 5.8 mph - N/A   Haze
2:35 AM 31.3 °F 23.3 °F 25.0 °F 77% 30.06 in 7.0 mi South 9.2 mph - N/A   Clear
2:55 AM 32.4 °F 23.5 °F 25.2 °F 75% 30.06 in 7.0 mi South 11.5 mph - N/A   Clear
3:14 AM 32.4 °F 24.0 °F 25.5 °F 76% 30.05 in 7.0 mi South 10.4 mph - N/A   Clear
3:35 AM 33.8 °F 26.4 °F 26.4 °F 74% 30.05 in 7.0 mi South 9.2 mph 16.1 mph N/A   Mostly Cloudy
3:54 AM 33.3 °F 25.1 °F 26.2 °F 75% 30.04 in 7.0 mi South 10.4 mph - N/A   Mostly Cloudy
4:14 AM 34.0 °F 25.0 °F 27.0 °F 75% 30.02 in 7.0 mi South 12.7 mph - N/A   Overcast
4:35 AM 34.9 °F 27.1 °F 27.3 °F 74% 30.02 in 7.0 mi SSW 10.4 mph - N/A   Overcast
4:54 AM 34.7 °F 27.5 °F 27.5 °F 75% 30.01 in 7.0 mi South 9.2 mph 17.3 mph N/A   Overcast
5:14 AM 36.3 °F 30.1 °F 28.6 °F 74% 30.01 in 10.0 mi SSW 8.1 mph - N/A   Overcast
5:35 AM 37.8 °F 30.7 °F 28.9 °F 71% 30.02 in 10.0 mi SW 10.4 mph 17.3 mph N/A Rain Light Rain
5:54 AM 37.8 °F 31.8 °F 29.1 °F 71% 29.99 in 10.0 mi SSW 8.1 mph - N/A   Overcast
6:15 AM 37.4 °F 31.4 °F 29.8 °F 74% 29.99 in 5.0 mi South 8.1 mph - N/A Rain Rain
6:35 AM 37.0 °F 32.4 °F 30.2 °F 76% 29.99 in 7.0 mi SSW 5.8 mph - N/A   Mostly Cloudy
6:54 AM 36.7 °F 32.0 °F 30.6 °F 78% 29.99 in 7.0 mi South 5.8 mph - N/A   Scattered Clouds
7:15 AM 36.7 °F 31.2 °F 30.6 °F 78% 30.00 in 10.0 mi SSW 6.9 mph - N/A   Clear
7:35 AM 37.0 °F 31.0 °F 30.7 °F 78% 30.00 in 10.0 mi SSW 8.1 mph - N/A   Clear
7:54 AM 37.8 °F 30.7 °F 31.1 °F 77% 30.01 in 10.0 mi SW 10.4 mph - N/A   Clear
8:15 AM 39.2 °F 31.6 °F 31.1 °F 73% 30.02 in 10.0 mi SW 12.7 mph 21.9 mph N/A   Clear
8:35 AM 39.2 °F 31.2 °F 30.9 °F 72% 30.03 in 10.0 mi WSW 13.8 mph 23.0 mph N/A   Clear
8:54 AM 39.6 °F 30.3 °F 30.9 °F 71% 30.04 in 10.0 mi WSW 18.4 mph 23.0 mph N/A   Clear
9:15 AM 39.9 °F 31.4 °F 30.7 °F 70% 30.05 in 10.0 mi WSW 16.1 mph 26.5 mph N/A   Clear
9:34 AM 40.1 °F 30.7 °F 30.6 °F 69% 30.06 in 10.0 mi WSW 19.6 mph 29.9 mph N/A   Clear
9:54 AM 40.1 °F 30.5 °F 30.6 °F 69% 30.07 in 10.0 mi WSW 20.7 mph 26.5 mph N/A   Clear
10:14 AM 39.9 °F 30.5 °F 30.6 °F 69% 30.08 in 10.0 mi WSW 19.6 mph 25.3 mph N/A   Scattered Clouds
10:34 AM 39.6 °F 29.5 °F 30.6 °F 70% 30.08 in 10.0 mi West 21.9 mph 27.6 mph N/A   Clear
10:55 AM 39.9 °F 30.5 °F 30.4 °F 69% 30.09 in 10.0 mi West 19.6 mph 26.5 mph N/A   Clear
11:14 AM 40.1 °F 32.0 °F 30.2 °F 68% 30.09 in 10.0 mi WSW 15.0 mph 25.3 mph N/A   Clear
11:34 AM 41.0 °F 33.9 °F 29.7 °F 64% 30.09 in 10.0 mi WSW 12.7 mph 23.0 mph N/A   Clear
11:54 AM 41.2 °F 33.0 °F 29.3 °F 63% 30.09 in 10.0 mi WSW 16.1 mph 24.2 mph N/A   Clear
12:14 PM 41.5 °F 33.2 °F 28.9 °F 61% 30.09 in 10.0 mi WSW 17.3 mph 24.2 mph N/A   Clear
12:35 PM 42.3 °F 34.1 °F 28.4 °F 58% 30.08 in 10.0 mi WSW 17.3 mph 24.2 mph N/A   Clear
12:54 PM 42.3 °F 34.4 °F 27.7 °F 56% 30.08 in 10.0 mi WSW 16.1 mph 27.6 mph N/A   Clear
1:14 PM 42.8 °F 34.3 °F 27.0 °F 54% 30.07 in 10.0 mi West 19.6 mph 28.8 mph N/A   Clear
1:35 PM 43.3 °F 35.2 °F 26.6 °F 52% 30.08 in 10.0 mi WSW 18.4 mph 26.5 mph N/A   Clear
1:54 PM 43.9 °F 35.7 °F 25.7 °F 49% 30.08 in 10.0 mi WSW 19.6 mph 28.8 mph N/A   Clear
2:15 PM 44.1 °F 35.7 °F 25.9 °F 49% 30.09 in 10.0 mi WSW 20.7 mph 28.8 mph N/A   Clear
2:35 PM 44.2 °F 35.9 °F 25.5 °F 48% 30.10 in 10.0 mi WSW 20.7 mph 27.6 mph N/A   Clear
2:54 PM 44.6 °F 35.9 °F 23.0 °F 43% 30.12 in 10.0 mi WSW 23.0 mph 35.7 mph N/A   Clear
3:15 PM 44.6 °F 35.5 °F 22.1 °F 41% 30.14 in 10.0 mi West 25.3 mph 35.7 mph N/A   Clear
3:35 PM 44.6 °F 36.4 °F 22.1 °F 41% 30.15 in 10.0 mi West 20.7 mph 32.2 mph N/A   Clear
3:54 PM 44.4 °F 36.1 °F 22.5 °F 42% 30.15 in 10.0 mi WSW 20.7 mph 24.2 mph N/A   Clear
4:15 PM 44.1 °F 36.2 °F 20.7 °F 39% 30.17 in 10.0 mi West 18.4 mph 27.6 mph N/A   Clear
4:35 PM 43.7 °F 34.7 °F 19.2 °F 38% 30.19 in 10.0 mi West 23.0 mph 31.1 mph N/A   Clear
4:54 PM 42.8 °F 34.8 °F 19.4 °F 39% 30.19 in 10.0 mi West 17.3 mph 27.6 mph N/A   Clear
5:15 PM 41.4 °F 33.6 °F 21.0 °F 44% 30.20 in 10.0 mi West 15.0 mph - N/A   Clear
5:35 PM 41.2 °F 33.4 °F 21.0 °F 45% 30.23 in 10.0 mi West 15.0 mph 25.3 mph N/A   Clear
5:54 PM 40.5 °F 32.1 °F 21.7 °F 47% 30.24 in 10.0 mi West 16.1 mph 24.2 mph N/A   Clear
6:15 PM 40.1 °F 31.6 °F 22.1 °F 49% 30.26 in 10.0 mi West 16.1 mph 24.2 mph N/A   Clear
6:34 PM 39.2 °F 30.5 °F 22.6 °F 52% 30.28 in 10.0 mi West 16.1 mph 20.7 mph N/A   Clear
7:15 PM 38.3 °F 29.3 °F 23.4 °F 55% 30.32 in 10.0 mi West 16.1 mph 25.3 mph N/A   Clear
7:34 PM 37.9 °F 30.5 °F 23.7 °F 57% 30.34 in 10.0 mi West 11.5 mph - N/A   Clear
7:54 PM 37.4 °F 29.3 °F 24.3 °F 59% 30.35 in 10.0 mi West 12.7 mph - N/A   Clear
8:14 PM 37.2 °F 29.1 °F 24.3 °F 60% 30.34 in 10.0 mi West 12.7 mph 19.6 mph N/A   Clear
8:34 PM 36.7 °F 28.4 °F 23.9 °F 60% 30.35 in 10.0 mi West 12.7 mph 16.1 mph N/A   Clear
9:14 PM 35.8 °F 28.8 °F 24.1 °F 62% 30.36 in 10.0 mi WNW 9.2 mph - N/A   Clear
9:34 PM 34.7 °F 28.8 °F 24.3 °F 66% 30.36 in 10.0 mi WNW 6.9 mph - N/A   Clear
9:55 PM 34.9 °F 27.7 °F 24.4 °F 66% 30.37 in 10.0 mi WNW 9.2 mph - N/A   Clear
10:14 PM 34.0 °F 27.2 °F 24.3 °F 68% 30.38 in 10.0 mi WNW 8.1 mph - N/A   Clear
10:35 PM 34.2 °F 28.2 °F 24.4 °F 68% 30.39 in 10.0 mi West 6.9 mph - N/A   Clear
10:55 PM 32.7 °F 27.3 °F 23.5 °F 69% 30.39 in 10.0 mi WNW 5.8 mph - N/A   Clear
11:14 PM 32.0 °F 27.5 °F 23.7 °F 71% 30.39 in 10.0 mi NW 4.6 mph - N/A   Clear
11:35 PM 31.5 °F 26.8 °F 23.5 °F 73% 30.39 in 10.0 mi NW 4.6 mph - N/A   Clear
11:54 PM 32.0 °F - 24.1 °F 73% 30.39 in 10.0 mi Calm Calm - N/A   Clear